Weather History for Macomb, IL

Change the Weather History Date:

Thursday, March 22, 2012

  Actual Average (KBRL) Record (KBRL)
Temperature  
Mean Temperature 66 °F 44 °F  
Max Temperature 72 °F 55 °F 81 °F (1939)
Min Temperature 60 °F 34 °F 10 °F (1913)
Degree Days  
Heating Degree Days 0 21  
Month to date heating degree days 560  
Since 1 July heating degree days 4938  
Cooling Degree Days 1 0  
Month to date cooling degree days 0  
Year to date cooling degree days 0  
Growing Degree Days 16 (Base 50)    
Moisture  
Dew Point 58 °F    
Average Humidity 80    
Maximum Humidity 98    
Minimum Humidity 51    
Precipitation  
Precipitation 0.00 in 0.09 in 1.31 in (1993)
Month to date precipitation 1.93  
Year to date precipitation 4.79  
Sea Level Pressure  
Sea Level Pressure 30.01 in    
Wind  
Wind Speed 10 mph (SSE)    
Max Wind Speed 16 mph    
Max Gust Speed 25 mph    
Visibility 9 miles    
Events Rain    
T = Trace of Precipitation, MM = Missing Value Source: NWS Daily Summary

Daily Weather History Graph

Daily Weather History Graph

Search for Another Location

Airport:

Trip Planner

Search our weather history database for the weather conditions in past years. The results will help you decide how hot, cold, wet, or windy it might be!

Date:

Astronomy

Mar. 22, 2012 Rise Set
Actual Time 7:01 AM CDT 7:17 PM CDT
Civil Twilight 6:34 AM CDT 7:44 PM CDT
Nautical Twilight 6:02 AM CDT 8:16 PM CDT
Astronomical Twilight 5:30 AM CDT 8:49 PM CDT
Moon 6:41 AM CDT (3/22) 7:42 PM CDT (3/22)
Length of Visible Light 13h 10m
Length of Day
12h 15m
New Moon, 0% of the Moon is Illuminated
Mar 22
New Moon
Mar 30
First Quarter
Apr 6
Full
Apr 13
Last Quarter
Apr 21
New

Hourly Weather History & Observations

Time (CDT) Temp. Dew Point Humidity Pressure Visibility Wind Dir Wind Speed Gust Speed Precip Events Conditions
12:15 AM 72.5 °F 53.6 °F 51% 29.99 in 10.0 mi SE 10.4 mph - N/A   Overcast
12:35 AM 72.7 °F 53.6 °F 51% 29.99 in 10.0 mi SE 11.5 mph - N/A   Overcast
12:55 AM 72.5 °F 53.8 °F 52% 29.99 in 10.0 mi SE 12.7 mph - N/A   Overcast
1:15 AM 72.5 °F 54.1 °F 52% 30.00 in 10.0 mi SE 11.5 mph - N/A   Overcast
1:35 AM 72.3 °F 54.5 °F 53% 30.00 in 10.0 mi SE 11.5 mph - N/A   Overcast
1:55 AM 72.7 °F 54.7 °F 53% 29.99 in 10.0 mi SE 12.7 mph - N/A   Overcast
2:15 AM 72.9 °F 54.7 °F 53% 30.00 in 10.0 mi SE 15.0 mph - N/A   Overcast
2:35 AM 70.3 °F 57.7 °F 64% 30.00 in 10.0 mi SSE 16.1 mph 23.0 mph N/A Rain Light Rain
2:55 AM 69.1 °F 59.5 °F 72% 29.99 in 10.0 mi SE 15.0 mph 25.3 mph N/A Rain Light Rain
3:15 AM 68.0 °F 59.9 °F 75% 29.98 in 10.0 mi SE 11.5 mph - N/A   Overcast
3:35 AM 68.2 °F 59.9 °F 75% 29.98 in 10.0 mi SE 9.2 mph - N/A   Overcast
3:55 AM 68.2 °F 59.4 °F 73% 29.98 in 10.0 mi SE 12.7 mph - N/A   Overcast
4:15 AM 68.7 °F 58.5 °F 70% 29.98 in 10.0 mi SE 11.5 mph - N/A   Overcast
4:35 AM 68.9 °F 57.9 °F 68% 29.98 in 10.0 mi SE 9.2 mph - N/A   Overcast
4:55 AM 68.9 °F 57.4 °F 67% 29.98 in 10.0 mi SE 10.4 mph - N/A   Overcast
5:15 AM 68.2 °F 57.2 °F 68% 29.97 in 10.0 mi ESE 9.2 mph - N/A   Overcast
5:35 AM 68.7 °F 57.2 °F 67% 29.98 in 10.0 mi SE 11.5 mph - N/A   Scattered Clouds
5:55 AM 68.4 °F 57.0 °F 67% 29.98 in 10.0 mi SE 11.5 mph - N/A   Clear
6:15 AM 68.4 °F 57.2 °F 67% 29.99 in 10.0 mi SE 13.8 mph - N/A   Mostly Cloudy
6:35 AM 68.9 °F 57.2 °F 66% 30.00 in 10.0 mi SE 10.4 mph - N/A   Overcast
6:55 AM 67.1 °F 57.9 °F 72% 30.01 in 10.0 mi South 8.1 mph - N/A   Overcast
7:15 AM 67.1 °F 57.7 °F 72% 30.01 in 10.0 mi South 5.8 mph - N/A   Overcast
7:35 AM 63.9 °F 57.7 °F 80% 30.03 in 10.0 mi WSW 10.4 mph - N/A Rain Light Rain
7:55 AM 63.0 °F 57.6 °F 82% 30.03 in 7.0 mi West 11.5 mph - N/A Rain Light Rain
8:15 AM 61.7 °F 56.3 °F 82% 30.04 in 10.0 mi WSW 8.1 mph - N/A   Scattered Clouds
8:35 AM 61.9 °F 56.1 °F 81% 30.05 in 10.0 mi WSW 5.8 mph - N/A   Scattered Clouds
8:55 AM 62.1 °F 56.3 °F 81% 30.05 in 10.0 mi West 4.6 mph - N/A   Mostly Cloudy
9:15 AM 62.8 °F 56.5 °F 80% 30.04 in 10.0 mi West 3.5 mph - N/A   Mostly Cloudy
9:35 AM 62.6 °F 57.2 °F 82% 30.04 in 10.0 mi Calm Calm - N/A   Overcast
9:55 AM 63.1 °F 56.5 °F 79% 30.04 in 10.0 mi Calm Calm - N/A   Overcast
10:15 AM 63.7 °F 56.8 °F 78% 30.04 in 10.0 mi NE 3.5 mph - N/A   Overcast
10:35 AM 63.9 °F 57.2 °F 79% 30.04 in 10.0 mi East 3.5 mph - N/A   Overcast
10:55 AM 64.6 °F 57.6 °F 78% 30.05 in 10.0 mi ESE 3.5 mph - N/A   Overcast
11:15 AM 64.4 °F 58.8 °F 82% 30.06 in 7.0 mi ESE 4.6 mph - N/A Rain Light Rain
11:35 AM 63.1 °F 59.0 °F 86% 30.06 in 5.0 mi SE 5.8 mph - N/A Rain Rain
11:55 AM 62.1 °F 59.5 °F 91% 30.06 in 4.0 mi SSE 5.8 mph - N/A Rain Rain
12:15 PM 61.7 °F 59.4 °F 92% 30.06 in 7.0 mi SSE 5.8 mph - N/A Rain Rain
12:35 PM 61.3 °F 59.5 °F 94% 30.06 in 7.0 mi SSE 9.2 mph - N/A Rain Light Rain
12:55 PM 61.3 °F 59.9 °F 95% 30.06 in 7.0 mi South 11.5 mph - N/A Rain Light Rain
1:15 PM 60.4 °F 59.0 °F 95% 30.05 in 7.0 mi South 10.4 mph - N/A Rain Light Rain
1:35 PM 60.4 °F 58.5 °F 93% 30.05 in 10.0 mi South 9.2 mph - N/A   Overcast
1:55 PM 61.2 °F 59.0 °F 93% 30.04 in 10.0 mi South 10.4 mph - N/A   Overcast
2:15 PM 61.0 °F 59.0 °F 93% 30.03 in 5.0 mi SSE 8.1 mph - N/A Rain Light Rain
2:35 PM 60.4 °F 59.0 °F 95% 30.03 in 7.0 mi South 8.1 mph - N/A Rain Heavy Rain
2:55 PM 60.1 °F 59.0 °F 96% 30.03 in 10.0 mi South 9.2 mph - N/A   Overcast
3:15 PM 60.4 °F 59.2 °F 96% 30.02 in 5.0 mi SSE 6.9 mph - N/A Rain Light Rain
3:35 PM 61.0 °F 59.9 °F 96% 30.01 in 7.0 mi SE 10.4 mph - N/A   Overcast
3:55 PM 62.2 °F 60.6 °F 94% 30.00 in 10.0 mi SE 9.2 mph - N/A   Overcast
4:15 PM 62.6 °F 60.1 °F 91% 30.00 in 10.0 mi SSE 9.2 mph - N/A   Mostly Cloudy
4:35 PM 62.2 °F 59.9 °F 92% 29.99 in 10.0 mi SE 6.9 mph - N/A Rain Light Rain
4:55 PM 61.9 °F 59.5 °F 92% 29.98 in 10.0 mi SSE 8.1 mph - N/A Rain Light Rain
5:15 PM 61.9 °F 60.1 °F 94% 29.98 in 10.0 mi South 8.1 mph - N/A Rain Light Rain
5:35 PM 61.7 °F 59.9 °F 94% 29.98 in 4.0 mi South 6.9 mph - N/A Rain Rain
5:55 PM 60.8 °F 59.7 °F 96% 29.98 in 4.0 mi SSW 4.6 mph - N/A Rain Heavy Rain
6:15 PM 60.3 °F 59.5 °F 97% 29.97 in 3.0 mi Calm Calm - N/A Rain Light Rain
6:35 PM 60.3 °F 59.5 °F 97% 29.98 in 5.0 mi South 3.5 mph - N/A Rain Rain
6:55 PM 60.3 °F 59.7 °F 98% 29.97 in 3.0 mi SSW 3.5 mph - N/A Rain Rain
7:15 PM 60.3 °F 59.7 °F 98% 29.97 in 10.0 mi Calm Calm - N/A   Overcast
7:35 PM 60.4 °F 59.7 °F 97% 29.97 in 10.0 mi SSE 4.6 mph - N/A   Overcast
7:55 PM 60.4 °F 59.5 °F 97% 29.97 in 10.0 mi SSE 4.6 mph - N/A   Overcast
8:15 PM 60.4 °F 59.5 °F 97% 29.97 in 10.0 mi SE 3.5 mph - N/A   Overcast
8:35 PM 60.8 °F 59.0 °F 94% 29.98 in 10.0 mi SE 5.8 mph - N/A   Overcast
8:55 PM 60.8 °F 59.9 °F 97% 30.00 in 10.0 mi SSE 4.6 mph - N/A   Overcast
9:15 PM 60.8 °F 59.9 °F 97% 29.99 in 10.0 mi Calm Calm - N/A   Overcast
9:35 PM 60.8 °F 59.9 °F 97% 30.00 in 10.0 mi SE 3.5 mph - N/A   Overcast
9:55 PM 60.8 °F 59.9 °F 97% 29.99 in 7.0 mi SSE 3.5 mph - N/A Rain Light Rain
10:15 PM 60.1 °F 59.2 °F 97% 29.99 in 7.0 mi East 4.6 mph - N/A   Mostly Cloudy
10:35 PM 59.9 °F 59.0 °F 97% 29.99 in 7.0 mi Calm Calm - N/A   Overcast
10:55 PM 60.1 °F 59.5 °F 98% 29.99 in 7.0 mi Calm Calm - N/A   Overcast
11:15 PM 60.8 °F 60.8 °F 100% 29.99 in 7.0 mi South 5.8 mph - N/A   Overcast
11:35 PM 61.2 °F 58.8 °F 92% 29.98 in 10.0 mi South 8.1 mph - N/A   Overcast
11:55 PM 60.6 °F 58.6 °F 93% 29.99 in 10.0 mi South 11.5 mph - N/A   Overcast